Location: Krakow
(50.0830°N, 19.9170°E)
Time: 10:34:35
(UTC+01:00)

Transit 2A - Pass Details

Date: 14 February 2023
Orbit: 591 x 964 km, 66.7° (Epoch: 21 March)

Event Time Altitude Azimuth Distance (km) Brightness Sun altitude
Rises 14:29:37 0° 213° (SSW) 3,047 10.8 18.4°
Reaches altitude 10° 14:31:49 10° 212° (SSW) 2,185 10.7 18.1°
Maximum altitude 14:36:49 85° 126° (SE) 779 6.4 17.6°
Drops below altitude 10° 14:42:28 10° 38° (NE) 2,454 8.1 17.0°
Sets 14:45:04 0° 38° (NE) 3,451 8.7 16.7°
